Previsão horária em Abadin

Hoje, 16 Janeiro, Sábado

Tempo Temperatura Precipitação Vento Pressão Humidade
00:00 +1°C° 0 mm 1 m/s 715 mmHg 91%
01:00 +1°C° 0 mm 1 m/s 714 mmHg 91%
02:00 +1°C° 0 mm 1 m/s 714 mmHg 90%
03:00 +1°C° 0 mm 1 m/s 714 mmHg 89%
04:00 0°C° 0 mm 1 m/s 714 mmHg 87%
05:00 0°C° 0 mm 1 m/s 714 mmHg 86%
06:00 +1°C° 0 mm 1 m/s 714 mmHg 82%
07:00 +1°C° 0 mm 1 m/s 714 mmHg 78%
08:00 +2°C° 0 mm 1 m/s 714 mmHg 75%
09:00 +4°C° 0 mm 1 m/s 715 mmHg 69%
10:00 +7°C° 0 mm 1 m/s 715 mmHg 63%
11:00 +10°C° 0 mm 1 m/s 716 mmHg 57%
12:00 +10°C° 0 mm 1 m/s 715 mmHg 61%
13:00 +11°C° 0 mm 1 m/s 715 mmHg 65%
14:00 +11°C° 0 mm 1 m/s 715 mmHg 70%
15:00 +9°C° 0 mm 1 m/s 715 mmHg 78%
16:00 +8°C° 0 mm 1 m/s 715 mmHg 86%
17:00 +6°C° 0 mm 1 m/s 714 mmHg 95%
18:00 +6°C° 0 mm 1 m/s 715 mmHg 95%
19:00 +5°C° 0 mm 1 m/s 715 mmHg 96%
20:00 +5°C° 0 mm 1 m/s 715 mmHg 96%
21:00 +5°C° 0 mm 1 m/s 715 mmHg 97%
22:00 +4°C° 0 mm 1 m/s 715 mmHg 97%
23:00 +4°C° 0 mm 1 m/s 715 mmHg 97%

Amanhã, 17 Janeiro, Domingo

Tempo Temperatura Precipitação Vento Pressão Humidade
00:00 +4°C° 0 mm 1 m/s 715 mmHg 97%
01:00 +4°C° 0 mm 1 m/s 714 mmHg 96%
02:00 +4°C° 0 mm 1 m/s 714 mmHg 96%
03:00 +4°C° 0 mm 1 m/s 714 mmHg 96%
04:00 +3°C° 0 mm 1 m/s 714 mmHg 96%
05:00 +3°C° 0 mm 1 m/s 714 mmHg 95%
06:00 +4°C° 0 mm 1 m/s 714 mmHg 94%
07:00 +4°C° 0 mm 1 m/s 715 mmHg 93%
08:00 +5°C° 0 mm 1 m/s 715 mmHg 92%
09:00 +7°C° 0 mm 1 m/s 715 mmHg 86%
10:00 +9°C° 0 mm 1 m/s 715 mmHg 79%
11:00 +11°C° 0 mm 1 m/s 716 mmHg 73%
12:00 +12°C° 0 mm 1 m/s 715 mmHg 72%
13:00 +11°C° 0 mm 0 m/s 715 mmHg 71%
14:00 +12°C° 0 mm 0 m/s 715 mmHg 70%
15:00 +10°C° 0 mm 0 m/s 714 mmHg 78%
16:00 +8°C° 0 mm 0 m/s 714 mmHg 87%
17:00 +6°C° 0 mm 0 m/s 714 mmHg 96%
18:00 +6°C° 0 mm 0 m/s 714 mmHg 96%
19:00 +5°C° 0 mm 0 m/s 714 mmHg 96%
20:00 +5°C° 0 mm 0 m/s 714 mmHg 97%
21:00 +5°C° 0 mm 0 m/s 714 mmHg 97%
22:00 +5°C° 0 mm 1 m/s 714 mmHg 97%
23:00 +5°C° 0 mm 1 m/s 714 mmHg 96%

Depois de amanhã, 18 Janeiro, Segunda-feira

Tempo Temperatura Precipitação Vento Pressão Humidade
00:00 +5°C° 0 mm 1 m/s 714 mmHg 96%
01:00 +5°C° 0 mm 1 m/s 713 mmHg 96%
02:00 +4°C° 0 mm 1 m/s 713 mmHg 95%
03:00 +4°C° 0 mm 1 m/s 713 mmHg 95%
04:00 +4°C° 0 mm 1 m/s 712 mmHg 94%
05:00 +4°C° 0 mm 1 m/s 712 mmHg 94%
06:00 +4°C° 0 mm 1 m/s 712 mmHg 93%
07:00 +4°C° 0 mm 1 m/s 712 mmHg 91%
08:00 +5°C° 0 mm 1 m/s 713 mmHg 90%
09:00 +7°C° 0 mm 1 m/s 713 mmHg 82%
10:00 +9°C° 0 mm 1 m/s 713 mmHg 75%
11:00 +11°C° 0 mm 1 m/s 713 mmHg 67%
12:00 +12°C° 0 mm 1 m/s 713 mmHg 66%
13:00 +12°C° 0 mm 1 m/s 712 mmHg 64%
14:00 +13°C° 0 mm 1 m/s 711 mmHg 63%
15:00 +11°C° 0 mm 1 m/s 711 mmHg 73%
16:00 +9°C° 0 mm 1 m/s 711 mmHg 83%
17:00 +5°C° 0 mm 0 m/s 710 mmHg 93%
18:00 +6°C° 0 mm 1 m/s 710 mmHg 93%
19:00 +5°C° 0 mm 1 m/s 710 mmHg 94%
20:00 +5°C° 0 mm 1 m/s 710 mmHg 94%
21:00 +5°C° 0 mm 1 m/s 710 mmHg 92%
22:00 +3°C° 0 mm 2 m/s 709 mmHg 91%
23:00 +3°C° 0 mm 2 m/s 709 mmHg 89%

19 Janeiro, Terça-feira

Tempo Temperatura Precipitação Vento Pressão Humidade
00:00 +3°C° 0 mm 2 m/s 708 mmHg 87%
01:00 +3°C° 0 mm 2 m/s 708 mmHg 84%
02:00 +3°C° 0 mm 2 m/s 707 mmHg 82%
03:00 +3°C° 0 mm 2 m/s 707 mmHg 78%
04:00 +3°C° 0 mm 3 m/s 706 mmHg 75%
05:00 +3°C° 0 mm 3 m/s 706 mmHg 71%
06:00 +3°C° 0 mm 3 m/s 706 mmHg 67%
07:00 +4°C° 0 mm 4 m/s 706 mmHg 64%
08:00 +5°C° 0 mm 4 m/s 705 mmHg 60%
09:00 +5°C° 0 mm 4 m/s 705 mmHg 59%
10:00 +6°C° 0 mm 5 m/s 705 mmHg 58%
11:00 +7°C° 0 mm 5 m/s 704 mmHg 57%
12:00 +7°C° 0 mm 5 m/s 704 mmHg 62%
13:00 +7°C° 0 mm 5 m/s 703 mmHg 68%
14:00 +7°C° 0 mm 5 m/s 702 mmHg 73%
15:00 +7°C° 0.1 mm 5 m/s 702 mmHg 76%
16:00 +6°C° 0.1 mm 5 m/s 702 mmHg 79%
17:00 +6°C° 0.1 mm 4 m/s 701 mmHg 83%
18:00 +6°C° 0.1 mm 4 m/s 701 mmHg 83%
19:00 +6°C° 0.1 mm 4 m/s 701 mmHg 84%
20:00 +6°C° 0.1 mm 4 m/s 700 mmHg 84%
21:00 +6°C° 0.2 mm 4 m/s 699 mmHg 86%
22:00 +7°C° 0.2 mm 3 m/s 699 mmHg 89%
23:00 +7°C° 0.2 mm 3 m/s 698 mmHg 91%

20 Janeiro, Quarta-feira

Tempo Temperatura Precipitação Vento Pressão Humidade
00:00 +7°C° 0.5 mm 3 m/s 697 mmHg 92%
01:00 +7°C° 0.5 mm 3 m/s 696 mmHg 92%
02:00 +7°C° 0.5 mm 3 m/s 696 mmHg 93%
03:00 +7°C° 0.5 mm 3 m/s 695 mmHg 93%
04:00 +6°C° 0.5 mm 4 m/s 694 mmHg 93%
05:00 +6°C° 0.5 mm 4 m/s 694 mmHg 92%
06:00 +6°C° 0.1 mm 4 m/s 694 mmHg 92%
07:00 +6°C° 0.1 mm 4 m/s 694 mmHg 92%
08:00 +7°C° 0.1 mm 3 m/s 693 mmHg 92%
09:00 +7°C° 0.2 mm 4 m/s 693 mmHg 89%
10:00 +8°C° 0.2 mm 4 m/s 693 mmHg 85%
11:00 +9°C° 0.2 mm 5 m/s 693 mmHg 82%
12:00 +8°C° 0.4 mm 4 m/s 693 mmHg 86%
13:00 +8°C° 0.4 mm 4 m/s 692 mmHg 90%
14:00 +8°C° 0.4 mm 3 m/s 692 mmHg 93%
15:00 +8°C° 0.3 mm 3 m/s 693 mmHg 94%
16:00 +8°C° 0.3 mm 3 m/s 694 mmHg 95%
17:00 +8°C° 0.3 mm 3 m/s 695 mmHg 96%
18:00 +8°C° 0.4 mm 3 m/s 696 mmHg 96%
19:00 +8°C° 0.4 mm 3 m/s 697 mmHg 97%
20:00 +8°C° 0.4 mm 2 m/s 698 mmHg 97%
21:00 +7°C° 0.2 mm 2 m/s 698 mmHg 97%
22:00 +7°C° 0.2 mm 2 m/s 699 mmHg 97%
23:00 +8°C° 0.2 mm 1 m/s 699 mmHg 98%

21 Janeiro, Quinta-feira

Tempo Temperatura Precipitação Vento Pressão Humidade
00:00 +6°C° 0.1 mm 2 m/s 699 mmHg 97%
01:00 +6°C° 0.1 mm 2 m/s 699 mmHg 97%
02:00 +6°C° 0.1 mm 2 m/s 699 mmHg 97%
03:00 +6°C° 0.5 mm 2 m/s 699 mmHg 97%
04:00 +6°C° 0.5 mm 2 m/s 698 mmHg 97%
05:00 +7°C° 0.5 mm 2 m/s 698 mmHg 97%
06:00 +7°C° 0.6 mm 2 m/s 698 mmHg 96%
07:00 +7°C° 0.6 mm 3 m/s 698 mmHg 96%
08:00 +7°C° 0.6 mm 3 m/s 697 mmHg 95%
09:00 +6°C° 1.3 mm 4 m/s 697 mmHg 95%
10:00 +6°C° 1.3 mm 4 m/s 697 mmHg 94%
11:00 +7°C° 1.3 mm 4 m/s 696 mmHg 94%
12:00 +6°C° 0.8 mm 5 m/s 695 mmHg 93%
13:00 +6°C° 0.8 mm 5 m/s 695 mmHg 92%
14:00 +6°C° 0.8 mm 5 m/s 694 mmHg 92%
15:00 +6°C° 1.6 mm 5 m/s 694 mmHg 92%
16:00 +5°C° 1.6 mm 6 m/s 694 mmHg 93%
17:00 +5°C° 1.6 mm 6 m/s 695 mmHg 93%
18:00 +5°C° 0.2 mm 6 m/s 695 mmHg 93%
19:00 +5°C° 0.2 mm 6 m/s 695 mmHg 92%
20:00 +5°C° 0.2 mm 5 m/s 695 mmHg 92%
21:00 +5°C° 2.2 mm 5 m/s 696 mmHg 93%
22:00 +4°C° 2.2 mm 4 m/s 697 mmHg 95%
23:00 +4°C° 2.2 mm 4 m/s 697 mmHg 96%
Mostrar mais